TimeCST,TemperatureF,Dew PointF,Humidity,Sea Level PressureIn,VisibilityMPH,Wind Direction,Wind SpeedMPH,Gust SpeedMPH,PrecipitationIn,Events,Conditions,WindDirDegrees,DateUTC
12:52 AM,28.0,23.0,81,30.01,10.0,West,6.9,-,N/A,,Clear,280,2012-01-07 06:52:00
2:52 AM,26.1,23.0,88,30.04,10.0,WNW,8.1,-,N/A,,Clear,300,2012-01-07 08:52:00
3:52 AM,26.1,21.9,84,30.05,10.0,NW,8.1,-,N/A,,Clear,310,2012-01-07 09:52:00
4:52 AM,25.0,21.0,85,30.05,10.0,NW,6.9,-,N/A,,Clear,310,2012-01-07 10:52:00
6:52 AM,21.9,19.9,92,30.11,10.0,WNW,5.8,-,N/A,,Clear,290,2012-01-07 12:52:00
7:52 AM,21.9,19.0,89,30.13,10.0,West,6.9,-,N/A,,Clear,280,2012-01-07 13:52:00
8:52 AM,25.0,21.9,88,30.15,10.0,West,5.8,-,N/A,,Clear,280,2012-01-07 14:52:00
9:52 AM,28.9,24.1,82,30.17,10.0,WNW,8.1,-,N/A,,Clear,290,2012-01-07 15:52:00
10:52 AM,32.0,26.1,79,30.19,10.0,WNW,8.1,-,N/A,,Clear,290,2012-01-07 16:52:00
11:52 AM,35.1,27.0,72,30.19,10.0,NW,6.9,-,N/A,,Clear,310,2012-01-07 17:52:00
12:52 PM,37.0,27.0,67,30.17,10.0,NNW,5.8,-,N/A,,Clear,330,2012-01-07 18:52:00
2:52 PM,37.9,28.0,68,30.18,10.0,West,5.8,-,N/A,,Clear,270,2012-01-07 20:52:00
3:52 PM,36.0,28.0,73,30.19,10.0,WSW,6.9,-,N/A,,Clear,240,2012-01-07 21:52:00
4:52 PM,30.9,28.0,89,30.21,10.0,SW,5.8,-,N/A,,Clear,230,2012-01-07 22:52:00
5:52 PM,30.0,27.0,88,30.22,10.0,SSW,6.9,-,N/A,,Clear,210,2012-01-07 23:52:00
6:52 PM,28.9,25.0,85,30.24,10.0,SW,5.8,-,N/A,,Clear,230,2012-01-08 00:52:00
8:52 PM,28.0,25.0,88,30.25,10.0,SW,5.8,-,N/A,,Clear,230,2012-01-08 02:52:00
9:52 PM,28.9,24.1,82,30.26,10.0,West,6.9,-,N/A,,Clear,270,2012-01-08 03:52:00
10:52 PM,27.0,23.0,85,30.26,10.0,West,6.9,-,N/A,,Clear,270,2012-01-08 04:52:00
11:52 PM,25.0,21.0,85,30.27,10.0,West,6.9,-,N/A,,Clear,260,2012-01-08 05:52:00